Location: Aultman
(40.9284°N, 81.4173°W)
Time: 08:41:21
(UTC+00:00)

Cosmos 1825 Rocket - Pass Details

Date: 24 January 2021
Orbit: 604 x 630 km, 82.5° (Epoch: 03 March)

Event Time Altitude Azimuth Distance (km) Brightness Sun altitude
Rises 12:09:07 0° 345° (NNW) 2,929 6.7 -6.7°
Reaches altitude 10° 12:11:26 10° 339° (NNW) 2,018 5.8 -6.3°
Maximum altitude 12:15:40 43° 268° (W) 890 4.0 -5.6°
Drops below altitude 10° 12:19:52 10° 197° (SSW) 2,002 6.2 -4.8°
Sets 12:22:10 0° 190° (S) 2,902 7.2 -4.4°
